| time (UTC) | temp F | wind direction | speed MPH | gust MPH | rain 1hr in | rain 24hr in | rain mn in | humidity % | barometer mb |
| 20260906014043 | 56 | 225 | 2.0 | 2.0 | 0.00 | 0.00 | 0.00 | 70 | 983.9 |
| 20260906013043 | 57 | 218 | 2.0 | 3.0 | 0.00 | 0.00 | 0.00 | 70 | 983.9 |
| 20260906012044 | 57 | 175 | 2.0 | 5.0 | 0.00 | 0.00 | 0.00 | 70 | 983.8 |
| 20260906011043 | 58 | 195 | 2.0 | 3.0 | 0.00 | 0.00 | 0.00 | 69 | 983.9 |
| 20260906010043 | 58 | 230 | 2.0 | 5.0 | 0.00 | 0.00 | 0.00 | 68 | 983.8 |
| 20260906005043 | 58 | 278 | 2.0 | 5.0 | 0.00 | 0.00 | 0.00 | 68 | 983.8 |
| 20260906004043 | 58 | 270 | 2.0 | 4.0 | 0.00 | 0.00 | 0.00 | 67 | 983.8 |
| 20260906003043 | 58 | 270 | 2.0 | 4.0 | 0.00 | 0.00 | 0.00 | 67 | 983.6 |
| 20260906002047 | 58 | 282 | 2.0 | 6.0 | 0.00 | 0.00 | 0.00 | 67 | 983.5 |
| 20260905235955 | 59 | 270 | 2.0 | 6.0 | 0.00 | 0.00 | 0.00 | 66 | 983.4 |
| 20260905234955 | 59 | 278 | 3.0 | 6.0 | 0.00 | 0.00 | 0.00 | 66 | 983.4 |
| 20260905233955 | 59 | 281 | 3.0 | 6.0 | 0.00 | 0.00 | 0.00 | 66 | 983.3 |
| 20260905232955 | 59 | 278 | 3.0 | 6.0 | 0.00 | 0.00 | 0.00 | 66 | 983.2 |
| 20260905231955 | 59 | 280 | 2.0 | 6.0 | 0.00 | 0.00 | 0.00 | 65 | 983.2 |
| 20260905230955 | 60 | 280 | 3.0 | 6.0 | 0.00 | 0.00 | 0.00 | 65 | 983.1 |
| 20260905225955 | 60 | 284 | 2.0 | 6.0 | 0.00 | 0.00 | 0.00 | 64 | 983.0 |
| 20260905224955 | 61 | 281 | 3.0 | 6.0 | 0.00 | 0.00 | 0.00 | 63 | 982.9 |
| 20260905223955 | 61 | 270 | 3.0 | 6.0 | 0.00 | 0.00 | 0.00 | 62 | 982.9 |
| 20260905222955 | 61 | 270 | 2.0 | 6.0 | 0.00 | 0.00 | 0.00 | 62 | 983.0 |
| 20260905221955 | 61 | 290 | 2.0 | 6.0 | 0.00 | 0.00 | 0.00 | 61 | 982.9 |
| 20260905220955 | 62 | 285 | 3.0 | 6.0 | 0.00 | 0.00 | 0.00 | 61 | 982.9 |
| 20260905215955 | 62 | 284 | 3.0 | 6.0 | 0.00 | 0.00 | 0.00 | 61 | 983.0 |
| 20260905214955 | 62 | 288 | 4.0 | 9.0 | 0.00 | 0.00 | 0.00 | 61 | 982.9 |
| 20260905213955 | 62 | 285 | 3.0 | 9.0 | 0.00 | 0.00 | 0.00 | 61 | 982.8 |
| 20260905212955 | 63 | 270 | 3.0 | 8.0 | 0.00 | 0.00 | 0.00 | 60 | 982.7 |
| 20260905211955 | 63 | 231 | 2.0 | 7.0 | 0.00 | 0.00 | 0.00 | 60 | 982.5 |
| 20260905210955 | 63 | 270 | 2.0 | 6.0 | 0.00 | 0.00 | 0.00 | 59 | 982.4 |
| 20260905205955 | 64 | 270 | 2.0 | 5.0 | 0.00 | 0.00 | 0.00 | 58 | 982.3 |
| 20260905204955 | 64 | 279 | 2.0 | 5.0 | 0.00 | 0.00 | 0.00 | 58 | 982.3 |
| 20260905203955 | 64 | 279 | 2.0 | 5.0 | 0.00 | 0.00 | 0.00 | 58 | 982.3 |
| 20260905202955 | 65 | 270 | 2.0 | 5.0 | 0.00 | 0.00 | 0.00 | 56 | 982.2 |
| 20260905191955 | 67 | 289 | 2.0 | 6.0 | 0.00 | 0.00 | 0.00 | 53 | 981.6 |
| 20260905190955 | 67 | 296 | 2.0 | 6.0 | 0.00 | 0.00 | 0.00 | 53 | 981.4 |
| 20260905185955 | 67 | 297 | 2.0 | 6.0 | 0.00 | 0.00 | 0.00 | 53 | 981.3 |
| 20260905184956 | 68 | 309 | 3.0 | 8.0 | 0.00 | 0.00 | 0.00 | 52 | 981.2 |
| 20260905183955 | 68 | 309 | 3.0 | 8.0 | 0.00 | 0.00 | 0.00 | 52 | 981.2 |
| 20260905182955 | 68 | 299 | 3.0 | 11.0 | 0.00 | 0.00 | 0.00 | 52 | 981.0 |
| 20260905181955 | 69 | 298 | 3.0 | 14.0 | 0.00 | 0.00 | 0.00 | 52 | 980.7 |
| 20260905180955 | 69 | 299 | 3.0 | 9.0 | 0.00 | 0.00 | 0.00 | 53 | 980.6 |
| 20260905175955 | 70 | 304 | 2.0 | 7.0 | 0.00 | 0.00 | 0.00 | 53 | 980.4 |
| 20260905174955 | 70 | 298 | 4.0 | 9.0 | 0.00 | 0.00 | 0.00 | 52 | 980.2 |
| 20260905173955 | 71 | 304 | 4.0 | 11.0 | 0.00 | 0.00 | 0.00 | 51 | 980.0 |
| 20260905172955 | 71 | 304 | 4.0 | 11.0 | 0.00 | 0.00 | 0.00 | 51 | 980.0 |
| 20260905171955 | 71 | 294 | 6.0 | 17.0 | 0.00 | 0.00 | 0.00 | 49 | 979.8 |
| 20260905170955 | 72 | 295 | 7.0 | 16.0 | 0.00 | 0.00 | 0.00 | 48 | 979.6 |
| 20260905165955 | 72 | 290 | 8.0 | 21.0 | 0.00 | 0.00 | 0.00 | 48 | 979.4 |
| 20260905164955 | 73 | 294 | 11.0 | 22.0 | 0.00 | 0.00 | 0.00 | 48 | 979.3 |
| 20260905163955 | 73 | 293 | 7.0 | 23.0 | 0.00 | 0.00 | 0.00 | 49 | 979.1 |
| 20260905162955 | 73 | 294 | 9.0 | 22.0 | 0.00 | 0.00 | 0.00 | 48 | 978.8 |
| 20260905161955 | 73 | 294 | 9.0 | 22.0 | 0.00 | 0.00 | 0.00 | 48 | 978.8 |
| 20260905160955 | 73 | 290 | 8.0 | 23.0 | 0.00 | 0.00 | 0.00 | 49 | 978.7 |
| 20260905155955 | 74 | 296 | 9.0 | 21.0 | 0.00 | 0.00 | 0.00 | 48 | 978.5 |
| 20260905154955 | 74 | 281 | 7.0 | 24.0 | 0.00 | 0.00 | 0.00 | 49 | 978.5 |
| 20260905153955 | 73 | 287 | 6.0 | 17.0 | 0.00 | 0.00 | 0.00 | 50 | 978.6 |
| 20260905152955 | 74 | 286 | 6.0 | 19.0 | 0.00 | 0.00 | 0.00 | 49 | 978.5 |
| 20260905151955 | 74 | 280 | 5.0 | 14.0 | 0.00 | 0.00 | 0.00 | 51 | 978.4 |
| 20260905150955 | 74 | 292 | 6.0 | 14.0 | 0.00 | 0.00 | 0.00 | 51 | 978.3 |
| 20260905145955 | 74 | 275 | 6.0 | 19.0 | 0.00 | 0.00 | 0.00 | 50 | 978.4 |
| 20260905144955 | 74 | 275 | 6.0 | 19.0 | 0.00 | 0.00 | 0.00 | 50 | 978.4 |
| 20260905143956 | 75 | 286 | 9.0 | 17.0 | 0.00 | 0.00 | 0.00 | 49 | 978.4 |
| 20260905142954 | 75 | 290 | 8.0 | 19.0 | 0.00 | 0.00 | 0.00 | 50 | 978.4 |
| 20260905141955 | 76 | 283 | 7.0 | 17.0 | 0.00 | 0.00 | 0.00 | 50 | 978.3 |
| 20260905140955 | 76 | 270 | 6.0 | 19.0 | 0.00 | 0.00 | 0.00 | 51 | 978.4 |
| 20260905135954 | 76 | 265 | 8.0 | 29.0 | 0.00 | 0.00 | 0.00 | 51 | 978.4 |
| 20260905134955 | 76 | 255 | 6.0 | 13.0 | 0.00 | 0.00 | 0.00 | 52 | 978.4 |
| 20260905133955 | 75 | 274 | 8.0 | 17.0 | 0.00 | 0.00 | 0.00 | 52 | 978.5 |
| 20260905132955 | 75 | 281 | 7.0 | 17.0 | 0.00 | 0.00 | 0.00 | 53 | 978.5 |
| 20260905131955 | 75 | 279 | 8.0 | 19.0 | 0.00 | 0.00 | 0.00 | 52 | 978.5 |
| 20260905130954 | 75 | 261 | 8.0 | 23.0 | 0.00 | 0.00 | 0.00 | 52 | 978.6 |
| 20260905125955 | 74 | 270 | 9.0 | 24.0 | 0.00 | 0.00 | 0.00 | 53 | 978.6 |
| 20260905124956 | 74 | 270 | 9.0 | 24.0 | 0.00 | 0.00 | 0.00 | 53 | 978.6 |
| 20260905123955 | 74 | 263 | 8.0 | 19.0 | 0.00 | 0.00 | 0.00 | 55 | 978.6 |
| 20260905122955 | 73 | 266 | 8.0 | 22.0 | 0.00 | 0.00 | 0.00 | 54 | 978.7 |
| 20260905121955 | 73 | 264 | 6.0 | 17.0 | 0.00 | 0.00 | 0.00 | 57 | 978.8 |
| 20260905120955 | 73 | 256 | 7.0 | 19.0 | 0.00 | 0.00 | 0.00 | 58 | 978.8 |
| 20260905115955 | 73 | 256 | 6.0 | 15.0 | 0.00 | 0.00 | 0.00 | 61 | 978.8 |
| 20260905114955 | 72 | 270 | 6.0 | 15.0 | 0.00 | 0.00 | 0.00 | 63 | 979.0 |
| 20260905113954 | 72 | 270 | 6.0 | 15.0 | 0.00 | 0.00 | 0.00 | 63 | 979.0 |
| 20260905112955 | 72 | 273 | 6.0 | 16.0 | 0.00 | 0.00 | 0.00 | 64 | 979.1 |
| 20260905111955 | 72 | 229 | 5.0 | 14.0 | 0.00 | 0.00 | 0.00 | 66 | 979.1 |
| 20260905110955 | 71 | 257 | 6.0 | 14.0 | 0.00 | 0.00 | 0.00 | 65 | 979.1 |
| 20260905105955 | 71 | 235 | 6.0 | 15.0 | 0.00 | 0.00 | 0.00 | 66 | 979.1 |
| 20260905104955 | 70 | 259 | 5.0 | 15.0 | 0.00 | 0.00 | 0.00 | 68 | 979.1 |
| 20260905103955 | 70 | 239 | 6.0 | 17.0 | 0.00 | 0.00 | 0.00 | 67 | 979.2 |
| 20260905102955 | 69 | 280 | 9.0 | 19.0 | 0.00 | 0.00 | 0.00 | 67 | 979.2 |
| 20260905095955 | 68 | 243 | 6.0 | 19.0 | 0.00 | 0.00 | 0.00 | 72 | 979.2 |
| 20260905094955 | 68 | 243 | 6.0 | 19.0 | 0.00 | 0.00 | 0.00 | 72 | 979.2 |
| 20260905093955 | 67 | 218 | 7.0 | 17.0 | 0.00 | 0.00 | 0.00 | 74 | 979.3 |
| 20260905092955 | 67 | 259 | 6.0 | 15.0 | 0.00 | 0.00 | 0.00 | 74 | 979.3 |
| 20260905091955 | 67 | 241 | 5.0 | 16.0 | 0.00 | 0.00 | 0.00 | 75 | 979.3 |
| 20260905090955 | 66 | 238 | 6.0 | 17.0 | 0.00 | 0.00 | 0.00 | 75 | 979.3 |
| 20260905085954 | 65 | 237 | 6.0 | 13.0 | 0.00 | 0.00 | 0.00 | 76 | 979.2 |
| 20260905084954 | 65 | 237 | 6.0 | 13.0 | 0.00 | 0.00 | 0.00 | 76 | 979.2 |
| 20260905083954 | 65 | 280 | 6.0 | 14.0 | 0.00 | 0.00 | 0.00 | 78 | 979.2 |
| 20260905082954 | 65 | 280 | 6.0 | 14.0 | 0.00 | 0.00 | 0.00 | 78 | 979.2 |
| 20260905081954 | 64 | 228 | 5.0 | 11.0 | 0.00 | 0.00 | 0.00 | 79 | 979.1 |
| 20260905080954 | 63 | 248 | 5.0 | 14.0 | 0.00 | 0.00 | 0.00 | 81 | 979.1 |
| 20260905075954 | 62 | 249 | 5.0 | 14.0 | 0.00 | 0.00 | 0.00 | 82 | 979.1 |
| 20260905074954 | 62 | 249 | 5.0 | 14.0 | 0.00 | 0.00 | 0.00 | 82 | 979.1 |
| 20260905073954 | 61 | 264 | 5.0 | 11.0 | 0.00 | 0.00 | 0.00 | 82 | 978.9 |
| 20260905072954 | 61 | 279 | 6.0 | 12.0 | 0.00 | 0.00 | 0.00 | 83 | 978.9 |
| 20260905071954 | 61 | 279 | 6.0 | 12.0 | 0.00 | 0.00 | 0.00 | 83 | 978.9 |
| 20260905070954 | 61 | 230 | 2.0 | 8.0 | 0.00 | 0.00 | 0.00 | 84 | 978.7 |
| 20260905065954 | 60 | 216 | 2.0 | 6.0 | 0.00 | 0.00 | 0.00 | 84 | 978.6 |
| 20260905064954 | 60 | 216 | 2.0 | 6.0 | 0.00 | 0.00 | 0.00 | 84 | 978.6 |
| 20260905063954 | 60 | 211 | 3.0 | 7.0 | 0.00 | 0.00 | 0.00 | 83 | 978.6 |
| 20260905062954 | 59 | 209 | 5.0 | 11.0 | 0.00 | 0.00 | 0.00 | 83 | 978.5 |
| 20260905061954 | 59 | 217 | 3.0 | 9.0 | 0.00 | 0.00 | 0.00 | 83 | 978.7 |
| 20260905060954 | 59 | 216 | 4.0 | 8.0 | 0.00 | 0.00 | 0.00 | 82 | 978.5 |
| 20260905055954 | 59 | 223 | 3.0 | 8.0 | 0.00 | 0.00 | 0.00 | 82 | 978.3 |
| 20260905054954 | 59 | 234 | 2.0 | 6.0 | 0.00 | 0.00 | 0.00 | 82 | 978.3 |
| 20260905053954 | 59 | 225 | 2.0 | 6.0 | 0.00 | 0.00 | 0.00 | 82 | 978.2 |
| 20260905052954 | 59 | 243 | 2.0 | 4.0 | 0.00 | 0.00 | 0.00 | 81 | 978.1 |
| 20260905051954 | 60 | 270 | 1.0 | 3.0 | 0.00 | 0.00 | 0.00 | 81 | 977.9 |
| 20260905050954 | 60 | 229 | 2.0 | 6.0 | 0.00 | 0.00 | 0.00 | 81 | 977.5 |
| 20260905045954 | 60 | 214 | 5.0 | 8.0 | 0.00 | 0.00 | 0.00 | 81 | 977.3 |
| 20260905044954 | 60 | 214 | 5.0 | 9.0 | 0.00 | 0.00 | 0.00 | 81 | 977.2 |
| 20260905043955 | 60 | 237 | 2.0 | 6.0 | 0.00 | 0.00 | 0.00 | 81 | 977.4 |
| 20260905042954 | 61 | 213 | 6.0 | 13.0 | 0.00 | 0.00 | 0.00 | 81 | 977.2 |
| 20260905041954 | 61 | 221 | 3.0 | 9.0 | 0.00 | 0.00 | 0.00 | 81 | 976.9 |
| 20260905040954 | 62 | 211 | 8.0 | 14.0 | 0.00 | 0.00 | 0.00 | 80 | 976.3 |
| 20260905035954 | 62 | 217 | 5.0 | 11.0 | 0.00 | 0.00 | 0.00 | 80 | 976.4 |
| 20260905034954 | 63 | 223 | 3.0 | 7.0 | 0.00 | 0.00 | 0.00 | 79 | 976.8 |
| 20260905033954 | 64 | 227 | 4.0 | 11.0 | 0.00 | 0.00 | 0.00 | 80 | 977.0 |
| 20260905032954 | 64 | 213 | 6.0 | 12.0 | 0.00 | 0.00 | 0.00 | 81 | 976.8 |
| 20260905031954 | 65 | 225 | 2.0 | 6.0 | 0.00 | 0.00 | 0.00 | 81 | 977.2 |
| 20260905030955 | 65 | 281 | 2.0 | 5.0 | 0.00 | 0.00 | 0.00 | 79 | 977.0 |
| 20260905025954 | 65 | 280 | 2.0 | 4.0 | 0.00 | 0.00 | 0.00 | 77 | 977.0 |
| 20260905024955 | 65 | 280 | 2.0 | 6.0 | 0.00 | 0.00 | 0.00 | 76 | 976.6 |
| 20260905023955 | 66 | 252 | 2.0 | 7.0 | 0.00 | 0.00 | 0.00 | 75 | 976.5 |
| 20260905022954 | 67 | 242 | 2.0 | 14.0 | 0.00 | 0.00 | 0.00 | 76 | 975.9 |
| 20260905021954 | 67 | 261 | 2.0 | 6.0 | 0.00 | 0.00 | 0.00 | 73 | 976.5 |
| 20260905020954 | 68 | 222 | 2.0 | 4.0 | 0.00 | 0.00 | 0.00 | 72 | 975.5 |
| 20260905015954 | 68 | 228 | 2.0 | 3.0 | 0.00 | 0.00 | 0.00 | 72 | 975.2 |
| 20260905014954 | 68 | 206 | 2.0 | 4.0 | 0.00 | 0.00 | 0.00 | 70 | 974.9 |